VK2OB Weather Reports


time (UTC)temp
C
wind
direction
speed
KPH
gust
KPH
rain 1hr
cm
rain 24hr
cm
rain mn
cm
humidity
%
barometer
mb
20260509064453 18 180 0.0 1.6 0.00 0.00 0.00 57 1023.3
20260509063954 18 45 0.0 0.0 0.00 0.00 0.00 57 1023.3
20260509063456 18 225 0.0 1.6 0.00 0.00 0.00 56 1023.3
20260509062957 18 90 0.0 3.2 0.00 0.00 0.00 56 1023.2
20260509062458 20 180 0.0 3.2 0.00 0.00 0.00 55 1023.2
20260509061959 19 180 1.6 4.8 0.00 0.00 0.00 56 1023.1
20260509061459 18 225 0.0 1.6 0.00 0.00 0.00 55 1023.1
20260509061001 18 315 1.6 3.2 0.00 0.00 0.00 55 1023.1
20260509060502 18 315 1.6 3.2 0.00 0.00 0.00 55 1023.1
20260509060003 18 180 0.0 3.2 0.00 0.00 0.00 54 1023.0
20260509055458 18 225 0.0 3.2 0.00 0.00 0.00 54 1022.9
20260509054451 20 225 0.0 1.6 0.00 0.00 0.00 52 1022.9
20260509053953 20 90 0.0 3.2 0.00 0.00 0.00 52 1022.9
20260509053453 20 225 0.0 6.4 0.00 0.00 0.00 52 1022.8
20260509052955 20 225 1.6 3.2 0.00 0.00 0.00 52 1022.8
20260509052450 20 225 0.0 1.6 0.00 0.00 0.00 52 1022.7
20260509051711 20 180 0.0 1.6 0.00 0.00 0.00 51 1022.7
20260509050938 20 180 1.6 4.8 0.00 0.00 0.00 51 1022.7
20260509050439 20 315 0.0 3.2 0.00 0.00 0.00 50 1022.8
20260509045940 20 315 0.0 1.6 0.00 0.00 0.00 51 1022.7
20260509045441 20 90 0.0 1.6 0.00 0.00 0.00 51 1022.7
20260509044941 20 90 1.6 3.2 0.00 0.00 0.00 51 1022.7
20260509044436 20 225 0.0 3.2 0.00 0.00 0.00 50 1022.6
20260509043657 20 180 0.0 3.2 0.00 0.00 0.00 49 1022.7
20260509042925 20 225 1.6 3.2 0.00 0.00 0.00 50 1022.6
20260509042426 20 0 0.0 1.6 0.00 0.00 0.00 50 1022.6
20260509041926 20 135 1.6 3.2 0.00 0.00 0.00 50 1022.6
20260509041427 20 180 1.6 3.2 0.00 0.00 0.00 50 1022.6
20260509040929 20 0 0.0 1.6 0.00 0.00 0.00 50 1022.6
20260509040430 20 180 0.0 3.2 0.00 0.00 0.00 50 1022.6
20260509035931 20 270 1.6 3.2 0.00 0.00 0.00 50 1022.6
20260509035432 20 225 0.0 1.6 0.00 0.00 0.00 50 1022.6
20260509034926 20 180 0.0 3.2 0.00 0.00 0.00 50 1022.6
20260509034154 20 0 0.0 3.2 0.00 0.00 0.00 46 1022.7
20260509033649 21 135 1.6 4.8 0.00 0.00 0.00 45 1022.7
20260509032910 21 225 0.0 3.2 0.00 0.00 0.00 44 1022.7
20260509032138 21 270 0.0 3.2 0.00 0.00 0.00 42 1022.7
20260509031639 20 158 3.2 4.8 0.00 0.00 0.00 42 1022.8
20260509031139 20 180 3.2 6.4 0.00 0.00 0.00 41 1022.8
20260509030641 20 225 4.8 8.0 0.00 0.00 0.00 41 1022.9
20260509030142 21 270 6.4 8.0 0.00 0.00 0.00 39 1022.9
20260509025643 21 0 3.2 8.0 0.00 0.00 0.00 39 1023.0
20260509025138 21 225 3.2 8.0 0.00 0.00 0.00 36 1023.0
20260509024125 22 45 0.0 1.6 0.00 0.00 0.00 34 1023.2
20260509023346 22 270 1.6 3.2 0.00 0.00 0.00 34 1023.3
20260509022614 21 180 3.2 6.4 0.00 0.00 0.00 36 1023.4
20260509022115 21 225 3.2 11.3 0.00 0.00 0.00 35 1023.4
20260509021616 22 225 4.8 9.7 0.00 0.00 0.00 35 1023.5
20260509021117 23 225 0.0 3.2 0.00 0.00 0.00 34 1023.5
20260509020617 23 315 3.2 6.4 0.00 0.00 0.00 34 1023.6
20260509020119 23 225 0.0 1.6 0.00 0.00 0.00 34 1023.7
20260509015620 23 225 3.2 6.4 0.00 0.00 0.00 33 1023.8
20260509015115 24 225 0.0 3.2 0.00 0.00 0.00 34 1023.8
20260509014343 23 225 1.6 3.2 0.00 0.00 0.00 37 1023.9
20260509013844 23 180 3.2 8.0 0.00 0.00 0.00 37 1024.0
20260509013345 23 225 6.4 11.3 0.00 0.00 0.00 37 1024.1
20260509012846 22 270 1.6 3.2 0.00 0.00 0.00 39 1024.1
20260509012347 22 225 1.6 3.2 0.00 0.00 0.00 39 1024.2
20260509011841 21 180 6.4 8.0 0.00 0.00 0.00 41 1024.2
20260509011108 20 180 3.2 3.2 0.00 0.00 0.00 45 1024.2
20260509010609 20 180 1.6 6.4 0.00 0.00 0.00 46 1024.3
20260509010110 20 180 3.2 8.0 0.00 0.00 0.00 46 1024.3
20260509005611 20 225 1.6 3.2 0.00 0.00 0.00 47 1024.4
20260509005112 20 225 3.2 6.4 0.00 0.00 0.00 48 1024.4
20260509004613 20 225 4.8 8.0 0.00 0.00 0.00 48 1024.5
20260509004114 19 225 1.6 3.2 0.00 0.00 0.00 50 1024.5
20260509003614 18 225 3.2 8.0 0.00 0.00 0.00 51 1024.5
20260509003116 18 225 1.6 4.8 0.00 0.00 0.00 51 1024.5
20260509002617 19 180 4.8 8.0 0.00 0.00 0.00 51 1024.6
20260509002118 19 225 3.2 8.0 0.00 0.00 0.00 51 1024.6
20260509001619 19 270 1.6 4.8 0.00 0.00 0.00 51 1024.6
20260509001120 19 225 3.2 8.0 0.00 0.00 0.00 51 1024.6
20260509000621 19 158 3.2 8.0 0.00 0.00 0.00 52 1024.7
20260509000121 19 225 1.6 4.8 0.00 0.00 0.00 51 1024.6
20260508235622 19 225 0.0 3.2 0.00 0.00 0.00 51 1024.7
20260508235124 20 225 0.0 1.6 0.00 0.00 0.00 50 1024.7
20260508234625 20 270 0.0 1.6 0.00 0.00 0.00 49 1024.7
20260508234120 20 270 0.0 1.6 0.00 0.00 0.00 49 1024.7
20260508233348 19 270 0.0 1.6 0.00 0.00 0.00 52 1024.7
20260508232849 17 225 0.0 1.6 0.00 0.00 0.00 57 1024.6
20260508232344 16 225 0.0 1.6 0.00 0.00 0.00 59 1024.7
20260508231611 17 270 0.0 1.6 0.00 0.00 0.00 57 1024.6
20260508231105 17 270 0.0 1.6 0.00 0.00 0.00 58 1024.6
20260508225313 17 270 0.0 1.6 0.00 0.00 0.00 58 1024.6
20260508224306 16 270 0.0 0.0 0.00 0.00 0.00 64 1024.6
20260508223808 15 270 0.0 0.0 0.00 0.00 0.00 66 1024.6
20260508223309 14 270 0.0 1.6 0.00 0.00 0.00 69 1024.5
20260508222810 13 315 0.0 1.6 0.00 0.00 0.00 69 1024.5
20260508222311 13 315 0.0 1.6 0.00 0.00 0.00 71 1024.4
20260508221812 13 270 0.0 1.6 0.00 0.00 0.00 71 1024.4
20260508221313 13 270 0.0 1.6 0.00 0.00 0.00 71 1024.3
20260508220814 12 270 0.0 0.0 0.00 0.00 0.00 70 1024.2
20260508220314 12 270 0.0 1.6 0.00 0.00 0.00 70 1024.2
20260508215815 12 270 0.0 1.6 0.00 0.00 0.00 70 1024.2
20260508215316 12 270 0.0 1.6 0.00 0.00 0.00 70 1024.2
20260508214816 12 270 0.0 1.6 0.00 0.00 0.00 70 1024.1
20260508214311 12 315 0.0 1.6 0.00 0.00 0.00 70 1024.1
20260508213538 12 315 0.0 0.0 0.00 0.00 0.00 70 1023.9
20260508213033 12 270 0.0 1.6 0.00 0.00 0.00 70 1023.9
20260508212300 12 0 0.0 1.6 0.00 0.00 0.00 70 1023.8
20260508211802 12 0 0.0 1.6 0.00 0.00 0.00 71 1023.7
20260508211303 11 0 0.0 0.0 0.00 0.00 0.00 72 1023.7
20260508210804 11 315 0.0 0.0 0.00 0.00 0.00 72 1023.7
20260508210304 11 315 0.0 0.0 0.00 0.00 0.00 72 1023.6
20260508205806 11 0 0.0 1.6 0.00 0.00 0.00 72 1023.5
20260508205307 11 0 0.0 1.6 0.00 0.00 0.00 72 1023.4
20260508204808 11 315 0.0 0.0 0.00 0.00 0.00 72 1023.3
20260508204309 11 0 0.0 1.6 0.00 0.00 0.00 71 1023.2
20260508203810 12 0 0.0 0.0 0.00 0.00 0.00 70 1023.2
20260508203310 12 0 0.0 1.6 0.00 0.00 0.00 70 1023.1
20260508202806 11 0 0.0 0.0 0.00 0.00 0.00 72 1023.0
20260508201800 11 270 0.0 0.0 0.00 0.00 0.00 72 1023.0
20260508201301 11 270 0.0 1.6 0.00 0.00 0.00 72 1023.0
20260508200802 11 270 0.0 0.0 0.00 0.00 0.00 72 1022.9
20260508200256 11 270 0.0 0.0 0.00 0.00 0.00 72 1022.9
20260508195524 11 270 0.0 0.0 0.00 0.00 0.00 71 1022.7
20260508195024 11 270 0.0 0.0 0.00 0.00 0.00 72 1022.6
20260508194525 11 270 0.0 0.0 0.00 0.00 0.00 72 1022.5
20260508194025 11 270 0.0 0.0 0.00 0.00 0.00 72 1022.4
20260508193525 11 315 0.0 0.0 0.00 0.00 0.00 72 1022.4
20260508193027 11 315 0.0 1.6 0.00 0.00 0.00 72 1022.4
20260508192528 11 225 0.0 1.6 0.00 0.00 0.00 72 1022.3
20260508192029 11 270 0.0 1.6 0.00 0.00 0.00 72 1022.1
20260508191530 11 315 0.0 0.0 0.00 0.00 0.00 72 1022.2
20260508191025 11 315 0.0 1.6 0.00 0.00 0.00 72 1022.1
20260508190253 11 225 0.0 1.6 0.00 0.00 0.00 72 1022.1
20260508185754 11 225 0.0 1.6 0.00 0.00 0.00 72 1022.2
20260508185254 11 225 0.0 1.6 0.00 0.00 0.00 72 1022.1
20260508184756 11 225 0.0 1.6 0.00 0.00 0.00 72 1022.1
20260508184251 11 225 0.0 1.6 0.00 0.00 0.00 72 1022.0
20260508183517 11 315 0.0 0.0 0.00 0.00 0.00 71 1022.1
20260508183019 11 315 0.0 1.6 0.00 0.00 0.00 71 1022.1
20260508182520 11 315 0.0 0.0 0.00 0.00 0.00 71 1022.1
20260508182021 11 315 0.0 1.6 0.00 0.00 0.00 71 1022.1
20260508181522 11 315 0.0 1.6 0.00 0.00 0.00 71 1022.1
20260508181023 11 225 0.0 1.6 0.00 0.00 0.00 70 1022.0
20260508180523 11 315 0.0 0.0 0.00 0.00 0.00 70 1021.9
20260508180025 11 315 0.0 1.6 0.00 0.00 0.00 70 1021.9
20260508175526 11 315 0.0 0.0 0.00 0.00 0.00 70 1021.9
20260508175027 11 270 0.0 1.6 0.00 0.00 0.00 70 1021.8
20260508174527 11 270 0.0 1.6 0.00 0.00 0.00 70 1021.9
20260508174028 12 315 0.0 1.6 0.00 0.00 0.00 69 1021.8
20260508173530 12 315 0.0 1.6 0.00 0.00 0.00 69 1021.8
20260508173031 11 315 0.0 1.6 0.00 0.00 0.00 70 1021.9
20260508172532 11 315 0.0 1.6 0.00 0.00 0.00 70 1021.9
20260508172033 11 315 0.0 0.0 0.00 0.00 0.00 70 1021.8
20260508171534 11 315 0.0 1.6 0.00 0.00 0.00 70 1021.8
20260508171035 11 315 0.0 1.6 0.00 0.00 0.00 70 1021.8
20260508170529 11 315 0.0 1.6 0.00 0.00 0.00 70 1021.7
20260508165249 11 270 0.0 1.6 0.00 0.00 0.00 70 1021.6
20260508164749 11 135 0.0 1.6 0.00 0.00 0.00 69 1021.6
20260508164250 11 315 0.0 3.2 0.00 0.00 0.00 69 1021.6
20260508163752 11 270 0.0 0.0 0.00 0.00 0.00 69 1021.7
20260508163253 11 270 0.0 1.6 0.00 0.00 0.00 69 1021.8
20260508162753 12 315 0.0 0.0 0.00 0.00 0.00 68 1021.7
20260508162254 12 315 0.0 3.2 0.00 0.00 0.00 67 1021.7
20260508161750 12 270 0.0 0.0 0.00 0.00 0.00 67 1021.8
20260508161016 12 270 0.0 1.6 0.00 0.00 0.00 66 1021.8
20260508160518 12 315 0.0 1.6 0.00 0.00 0.00 66 1021.8
20260508160019 12 270 0.0 1.6 0.00 0.00 0.00 67 1021.8
20260508155514 12 315 0.0 1.6 0.00 0.00 0.00 67 1021.8
20260508154741 12 0 0.0 0.0 0.00 0.00 0.00 67 1021.7
20260508154243 12 0 0.0 1.6 0.00 0.00 0.00 67 1021.7
20260508153744 12 315 0.0 0.0 0.00 0.00 0.00 66 1021.7
20260508153245 12 45 0.0 1.6 0.00 0.00 0.00 66 1021.7
20260508152745 12 45 0.0 1.6 0.00 0.00 0.00 66 1021.7
20260508152247 12 315 0.0 1.6 0.00 0.00 0.00 65 1021.7
20260508151741 12 45 0.0 1.6 0.00 0.00 0.00 65 1021.7
20260508151008 12 0 0.0 1.6 0.00 0.00 0.00 65 1021.7
20260508150504 12 0 0.0 0.0 0.00 0.00 0.00 65 1021.7
20260508145458 12 0 0.0 1.6 0.00 0.00 0.00 64 1021.7
20260508144958 12 0 0.0 1.6 0.00 0.00 0.00 64 1021.6
20260508144500 12 315 0.0 1.6 0.00 0.00 0.00 64 1021.5
20260508144001 12 315 0.0 0.0 0.00 0.00 0.00 64 1021.5
20260508143502 13 315 0.0 1.6 0.00 0.00 0.00 63 1021.5
20260508143003 13 315 0.0 1.6 0.00 0.00 0.00 63 1021.5
20260508142504 13 315 0.0 0.0 0.00 0.00 0.00 63 1021.4
20260508141958 12 315 0.0 1.6 0.00 0.00 0.00 63 1021.4
20260508141226 13 270 0.0 1.6 0.00 0.00 0.00 63 1021.4
20260508140727 13 270 0.0 1.6 0.00 0.00 0.00 63 1021.4
20260508140227 13 270 0.0 1.6 0.00 0.00 0.00 63 1021.4
20260508135729 13 270 1.6 3.2 0.00 0.00 0.00 63 1021.4
20260508135230 13 270 0.0 1.6 0.00 0.00 0.00 63 1021.3
20260508134731 13 270 0.0 0.0 0.00 0.00 0.00 63 1021.3
20260508134232 13 270 0.0 1.6 0.00 0.00 0.00 63 1021.3
20260508133733 13 270 0.0 1.6 0.00 0.00 0.00 63 1021.3
20260508133233 13 270 0.0 1.6 0.00 0.00 0.00 63 1021.3
20260508132734 13 270 0.0 1.6 0.00 0.00 0.00 63 1021.3
20260508132236 13 270 0.0 3.2 0.00 0.00 0.00 63 1021.3
20260508131737 12 270 1.6 3.2 0.00 0.00 0.00 63 1021.3
20260508131238 12 270 1.6 3.2 0.00 0.00 0.00 63 1021.3
20260508130739 12 270 0.0 1.6 0.00 0.00 0.00 63 1021.3
20260508130240 12 270 1.6 3.2 0.00 0.00 0.00 63 1021.3
20260508125740 13 270 0.0 1.6 0.00 0.00 0.00 63 1021.3
20260508125240 13 270 0.0 3.2 0.00 0.00 0.00 63 1021.3
20260508124740 13 270 0.0 1.6 0.00 0.00 0.00 63 1021.2
20260508124242 13 315 0.0 1.6 0.00 0.00 0.00 63 1021.2
20260508123743 12 315 0.0 1.6 0.00 0.00 0.00 62 1021.3
20260508123244 12 270 0.0 3.2 0.00 0.00 0.00 62 1021.3
20260508122745 13 270 0.0 1.6 0.00 0.00 0.00 62 1021.2
20260508122246 13 270 0.0 3.2 0.00 0.00 0.00 62 1021.3
20260508121747 13 270 0.0 1.6 0.00 0.00 0.00 61 1021.3
20260508121248 13 270 0.0 1.6 0.00 0.00 0.00 62 1021.3
20260508120749 13 225 0.0 1.6 0.00 0.00 0.00 61 1021.3
20260508120249 13 270 0.0 1.6 0.00 0.00 0.00 61 1021.3
20260508115751 13 225 0.0 1.6 0.00 0.00 0.00 61 1021.3
20260508115252 13 270 0.0 1.6 0.00 0.00 0.00 60 1021.2
20260508114753 13 270 0.0 3.2 0.00 0.00 0.00 60 1021.1
20260508114254 13 270 0.0 3.2 0.00 0.00 0.00 60 1021.0
20260508113749 13 270 0.0 1.6 0.00 0.00 0.00 59 1020.9
20260508113017 13 270 1.6 3.2 0.00 0.00 0.00 58 1021.2
20260508112518 13 270 0.0 1.6 0.00 0.00 0.00 58 1021.3
20260508112018 13 270 0.0 1.6 0.00 0.00 0.00 58 1021.2
20260508111520 14 270 0.0 1.6 0.00 0.00 0.00 57 1021.3
20260508111021 14 270 0.0 1.6 0.00 0.00 0.00 57 1021.2
20260508110522 14 315 0.0 3.2 0.00 0.00 0.00 57 1021.2
20260508110023 13 180 0.0 1.6 0.00 0.00 0.00 57 1021.1
20260508105524 13 45 0.0 1.6 0.00 0.00 0.00 57 1021.1
20260508105025 14 315 0.0 0.0 0.00 0.00 0.00 56 1021.0
20260508104526 14 270 0.0 0.0 0.00 0.00 0.00 56 1020.9
20260508104026 14 270 0.0 1.6 0.00 0.00 0.00 55 1020.8
20260508103528 14 270 0.0 1.6 0.00 0.00 0.00 55 1020.8
20260508103029 14 225 0.0 3.2 0.00 0.00 0.00 55 1020.7
20260508102530 14 270 0.0 1.6 0.00 0.00 0.00 55 1020.7
20260508102025 15 68 0.0 3.2 0.00 0.00 0.00 55 1020.6
20260508101253 15 180 0.0 3.2 0.00 0.00 0.00 55 1020.5
20260508100754 15 225 0.0 3.2 0.00 0.00 0.00 55 1020.5
20260508100254 15 315 0.0 3.2 0.00 0.00 0.00 55 1020.5
20260508095755 15 90 1.6 4.8 0.00 0.00 0.00 55 1020.4
20260508095251 15 180 1.6 4.8 0.00 0.00 0.00 54 1020.4
20260508094518 15 45 0.0 1.6 0.00 0.00 0.00 52 1020.3
20260508094020 15 315 0.0 1.6 0.00 0.00 0.00 52 1020.2
20260508093521 15 270 0.0 1.6 0.00 0.00 0.00 51 1020.0
20260508093022 16 270 0.0 1.6 0.00 0.00 0.00 51 1019.9
20260508092522 16 225 0.0 3.2 0.00 0.00 0.00 49 1019.9
20260508092023 16 225 1.6 3.2 0.00 0.00 0.00 49 1019.9
20260508091525 16 225 3.2 6.4 0.00 0.00 0.00 49 1019.9
20260508091026 16 225 3.2 8.0 0.00 0.00 0.00 49 1019.8
20260508090521 16 225 1.6 3.2 0.00 0.00 0.00 48 1019.8
20260508085749 16 203 3.2 4.8 0.00 0.00 0.00 47 1019.6
20260508085250 16 225 1.6 3.2 0.00 0.00 0.00 47 1019.5
20260508084751 16 225 3.2 4.8 0.00 0.00 0.00 46 1019.5
20260508084252 17 270 1.6 3.2 0.00 0.00 0.00 44 1019.4
20260508083752 17 270 3.2 3.2 0.00 0.00 0.00 44 1019.2
20260508083253 17 225 3.2 8.0 0.00 0.00 0.00 43 1019.1
20260508082753 17 225 1.6 4.8 0.00 0.00 0.00 43 1019.0
20260508082255 17 315 3.2 4.8 0.00 0.00 0.00 43 1018.9
20260508081756 17 180 3.2 4.8 0.00 0.00 0.00 43 1018.8
20260508081257 17 315 3.2 4.8 0.00 0.00 0.00 42 1018.7
20260508080758 17 135 3.2 3.2 0.00 0.00 0.00 42 1018.5
20260508080258 17 225 3.2 6.4 0.00 0.00 0.00 42 1018.4
20260508075800 18 135 3.2 8.0 0.00 0.00 0.00 42 1018.4
20260508075255 18 180 3.2 8.0 0.00 0.00 0.00 42 1018.3
20260508074522 18 248 3.2 6.4 0.00 0.00 0.00 42 1018.1
20260508074024 18 225 3.2 8.0 0.00 0.00 0.00 41 1018.0
20260508073519 18 315 3.2 6.4 0.00 0.00 0.00 41 1017.9
20260508072747 18 225 3.2 6.4 0.00 0.00 0.00 41 1017.7
20260508072248 18 225 3.2 4.8 0.00 0.00 0.00 40 1017.6
20260508071749 18 315 3.2 8.0 0.00 0.00 0.00 40 1017.6
20260508071250 18 225 3.2 6.4 0.00 0.00 0.00 39 1017.5
20260508070751 19 203 3.2 6.4 0.00 0.00 0.00 37 1017.4
20260508070245 19 225 3.2 4.8 0.00 0.00 0.00 36 1017.2
20260508065513 19 315 4.8 11.3 0.00 0.00 0.00 36 1017.1
20260508065014 19 225 6.4 9.7 0.00 0.00 0.00 36 1016.9